Probability
0 0 0 0 0 0 0 0 0 0 0 0 0 0 0 0 0 0 0 0 0 0 0 0 0 0 0 0 0 0 0 0 0 0 0 0 0 0 0 0 0 0 0
0 0 0 0 0 0 0 0 0 0 0 0 0 0 0 0 0 0 0 0 0 0 0 0 0 0 0 0 0 0 0 0 0 0 0 0 0 0 0 0 0 0 0
0 0 0 0 0 0 0 0 0 0 0 0 0 0 0 0 0 0 0 0 0 0 0 0 0 0 0 0 0 0 0 0 0 0 0 0 0 0 0 0 0 0 0
0 0 0 0 0 0 0 0 0 0 0 0 0 0 0 0 0 0 0 0 0 0 0 0 0 0 0 0 0 0 0 0 0 0 0 0 0 0 0 0 0 0 0
0 0 0 0 0 0 0 0 0 0 0 0 0 0 0 0 0 0 0 0 0 0 0 0 0 0 0 0 0 0 0 0 0 0 0 0 0 0 0 0 0 0 0
0 0 0 0 0 0 0 0 0 0 0 0 0 0 0 0 0 0 0 0 0 0 0 0 0 0 0 0 0 0 0 0 0 0 0 0 0 0 0 0 0 0 0
0 0 0 0 0 0 0 0 0 0 0 0 0 0 0 0 0 0 0 0 0 0 0 0 0 0 0 0 0 0 0 0 0 0 0 0 0 0 0 0 0 0 0
0 0 0 0 0 0 0 0 0 0 0 0 0 0 0 0 0 0 0 0 0 0 0 0 0 0 0 0 0 0 0 0 0 0 0 0 0 0 0 0 0 0 0
0 0 0 0 0 0 0 0 0 0 0 0 0 0 0 0 0 0 0 0 0 0 0 0 0 0 0 0 0 0 0 0 0 0 0 0 0 0 0 0 0 0 0
0 0 0 0 0 0 0 0 0 0 0 0 0 0 0 0 0 0 0 0 0 0 0 0 0 0 0 0 0 0 0 0 0 0 0 0 0 0 0 0 0 0 0
0 0 0 0 0 0 0 0 0 0 0 0 0 0 0 0 0 0 0 0 0 0 0 0 0 0 0 0 0 0 0 0 0 0 0 0 0 0 0 0 0 0 0
0 0 0 0 0 0 0 0 0 0 0 0 0 0 0 0 0 0 0 0 0 0 0 0 0 0 0 0 0 0 0 0 0 0 0 0 0 0 0 0 0 0 0
0 0 0 0 0 0 0 0 0 0 0 0 0 0 0 0 0 0 0 0 0 0 0 0 0 0 0 0 0 0 0 0 0 0 0 0 0 0 0 0 0 0 0
0 0 0 0 0 0 0 0 0 0 0 0 0 0 0 0 0 0 0 0 0 0 0 0 0 0 0 0 0 0 0 0 0 0 0 0 0 0 0 0 0 0 0
0 0 0 0 0 0 0 0 0 0 0 0 0 0 0 0 0 0 0 0 0 0 0 0 0 0 0 0 0 0 0 0 0 0 0 0 0 0 0 0 0 0 0
0 0 0 0 0 0 0 0 0 0 0 0 0 0 0 0 0 0 0 0 0 0 0 0 0 0 0 0 0 0 0 0 0 0 0 0 0 0 0 0 0 0 0
0 0 0 0 0 0 0 0 0 0 0 0 0 0 0 0 0 0 0 0 0 0 0 0 0 0 0 0 0 0 0 0 0 0 0 0 0 0 0 0 0 0 0
0 0 0 0 0 0 0 0 0 0 0 0 0 0 0 0 0 0 0 0 0 0 0 0 0 0 0 0 0 0 0 0 0 0 0 0 0 0 0 0 0 0 0
0 0 0 0 0 0 0 0 0 0 0 0 0 0 0 0 0 0 0 0 0 0 0 0 0 0 0 0 0 0 0 0 0 0 0 0 0 0 0 0 0 0 0
0 0 0 0 0 0 0 0 0 0 0 0 0 0 0 0 0 0 0 0 0 0 0 0 0 0 0 0 0 0 0 0 0 0 0 0 0 0 0 0 0 0 0
0 0 0 0 0 0 0 0 0 0 0 0 0 0 0 0 0 0 0 0 0 0 0 0 0 0 0 0 0 0 0 0 0 0 0 0 0 0 0 0 0 0 0
0 0 0 0 0 0 0 0 0 0 0 0 0 0 0 0 0 0 0 0 0 0 0 0 0 0 0 0 0 0 0 0 0 0 0 0 0 0 0 0 0 0 0
0 0 0 0 0 0 0 0 0 0 0 0 0 0 0 0 0 0 0 0 0 0 0 0 0 0 0 0 0 0 0 0 0 0 0 0 0 0 0 0 0 0 0
0 0 0 0 0 0 0 0 0 0 0 0 0 0 0 0 0 0 0 0 0 0 0 0 0 0 0 0 0 0 0 0 0 0 0 0 0 0 0 0 0 0 0
0 0 0 0 0 0 0 0 0 0 0 0 0 0 0 0 0 0 0 0 0 0 0 0 0 0 0 0 0 0 0 0 0 0 0 0 0 0 0 0 0 0 0
0 0 0 0 0 0 0 0 0 0 0 0 0 0 0 0 0 0 0 0 0 0 0 0 0 0 0 0 0 0 0 0 0 0 0 0 0 0 0 0 0 0 0
Height
5688 5691 5693 5695 5697 5699 5701 5704 5706 5708 5710 5711 5713 5715 5716 5718 5719 5720 5720 5721 5721 5721 5721 5721 5721 5720 5719 5717 5716 5714 5712 5710 5708 5706 5703 5700 5697 5693 5690 5687 5684 5681 5679
5681 5683 5685 5687 5689 5690 5692 5694 5696 5698 5700 5701 5703 5704 5706 5707 5709 5709 5710 5710 5710 5710 5710 5710 5709 5709 5708 5706 5705 5703 5701 5699 5697 5694 5692 5689 5686 5683 5680 5676 5673 5670 5668
5672 5674 5675 5677 5679 5680 5682 5684 5686 5687 5689 5691 5692 5694 5695 5696 5697 5698 5698 5699 5699 5699 5699 5699 5698 5697 5696 5695 5693 5692 5690 5687 5685 5683 5681 5678 5675 5672 5669 5666 5663 5660 5658
5662 5664 5665 5667 5668 5670 5672 5673 5675 5676 5678 5679 5681 5682 5683 5684 5685 5686 5687 5687 5687 5687 5687 5687 5687 5686 5685 5684 5682 5680 5678 5676 5674 5672 5669 5666 5664 5660 5658 5655 5652 5650 5648
5652 5653 5654 5656 5657 5658 5660 5661 5663 5664 5666 5667 5668 5670 5671 5672 5673 5674 5675 5675 5675 5676 5676 5675 5675 5674 5673 5672 5671 5669 5667 5665 5663 5661 5658 5655 5653 5650 5647 5645 5643 5640 5639
5640 5641 5642 5643 5644 5646 5647 5648 5650 5651 5653 5654 5656 5657 5658 5659 5660 5661 5662 5663 5663 5664 5664 5664 5663 5663 5662 5660 5659 5657 5656 5654 5652 5650 5647 5645 5642 5639 5637 5635 5633 5631 5630
5628 5629 5629 5630 5631 5632 5634 5635 5636 5637 5639 5641 5642 5644 5645 5646 5648 5649 5649 5650 5651 5651 5652 5652 5651 5651 5650 5649 5647 5646 5645 5643 5641 5639 5636 5634 5631 5629 5627 5625 5624 5622 5621
5615 5615 5615 5616 5617 5618 5619 5620 5622 5623 5625 5627 5628 5630 5631 5633 5634 5635 5636 5637 5638 5639 5639 5639 5639 5639 5638 5637 5636 5635 5633 5632 5630 5627 5626 5624 5622 5620 5618 5617 5615 5614 5613
5601 5600 5600 5601 5602 5603 5604 5605 5607 5608 5610 5612 5614 5615 5617 5618 5620 5621 5622 5624 5625 5626 5626 5627 5627 5627 5626 5626 5625 5623 5622 5621 5619 5617 5615 5614 5612 5611 5609 5608 5607 5606 5605
5586 5586 5585 5586 5586 5587 5588 5590 5591 5593 5595 5596 5598 5600 5602 5604 5606 5607 5609 5610 5611 5613 5613 5614 5615 5615 5614 5614 5613 5612 5611 5610 5609 5607 5606 5605 5603 5602 5601 5600 5599 5598 5598
5570 5570 5570 5570 5571 5571 5573 5574 5575 5577 5579 5581 5583 5585 5587 5589 5591 5593 5595 5596 5598 5600 5601 5602 5602 5602 5602 5602 5602 5601 5601 5600 5598 5597 5596 5595 5594 5593 5592 5591 5591 5591 5590
5553 5553 5553 5553 5554 5555 5556 5558 5559 5561 5563 5565 5567 5570 5572 5574 5577 5579 5581 5583 5585 5587 5588 5589 5590 5590 5591 5591 5591 5590 5590 5589 5589 5588 5587 5586 5585 5585 5584 5583 5583 5583 5582
5535 5534 5534 5535 5536 5537 5539 5541 5543 5545 5547 5550 5552 5555 5558 5560 5562 5565 5567 5569 5571 5573 5575 5576 5578 5578 5579 5580 5580 5580 5579 5579 5579 5578 5578 5577 5577 5576 5576 5575 5575 5575 5575
5516 5515 5515 5516 5517 5519 5521 5524 5526 5529 5531 5534 5537 5540 5543 5545 5548 5551 5553 5556 5558 5560 5562 5564 5565 5567 5568 5568 5569 5569 5569 5569 5569 5569 5568 5568 5568 5567 5567 5567 5567 5567 5567
5496 5496 5496 5497 5498 5500 5502 5505 5509 5512 5515 5518 5521 5524 5528 5531 5534 5537 5540 5542 5545 5548 5550 5552 5554 5555 5556 5557 5558 5558 5559 5559 5559 5559 5559 5559 5559 5559 5559 5559 5559 5559 5559
5476 5476 5476 5477 5479 5481 5484 5487 5491 5495 5498 5502 5505 5509 5513 5517 5520 5523 5526 5529 5532 5534 5537 5540 5542 5543 5545 5546 5547 5548 5548 5549 5549 5550 5550 5550 5550 5550 5550 5550 5550 5550 5550
5457 5457 5457 5458 5460 5462 5465 5469 5473 5478 5481 5486 5490 5494 5498 5502 5506 5509 5512 5515 5518 5521 5525 5527 5530 5532 5533 5535 5536 5537 5538 5539 5540 5540 5540 5541 5541 5541 5541 5541 5541 5541 5541
5438 5438 5439 5440 5442 5444 5447 5451 5456 5460 5465 5470 5475 5479 5483 5487 5491 5495 5498 5502 5506 5509 5513 5515 5518 5520 5522 5523 5525 5526 5528 5529 5530 5530 5531 5531 5532 5532 5532 5532 5532 5531 5531
5421 5420 5421 5422 5424 5426 5430 5434 5438 5443 5449 5454 5459 5464 5469 5473 5477 5481 5485 5489 5493 5497 5501 5503 5506 5508 5510 5512 5514 5516 5517 5518 5520 5520 5521 5522 5522 5522 5522 5522 5522 5522 5521
5405 5404 5404 5405 5406 5409 5413 5417 5422 5427 5433 5439 5444 5450 5454 5459 5464 5469 5473 5477 5481 5485 5488 5491 5494 5497 5499 5501 5503 5505 5507 5508 5509 5510 5511 5512 5512 5512 5512 5512 5512 5511 5511
5390 5389 5389 5389 5390 5393 5396 5401 5406 5411 5417 5424 5430 5435 5440 5446 5451 5456 5460 5465 5469 5472 5476 5479 5482 5485 5488 5490 5492 5494 5496 5497 5499 5500 5501 5501 5502 5502 5502 5502 5501 5501 5500
5377 5376 5375 5375 5376 5378 5382 5386 5391 5397 5403 5409 5416 5421 5427 5433 5438 5443 5448 5452 5456 5460 5464 5467 5471 5474 5477 5479 5481 5483 5485 5487 5488 5489 5490 5491 5491 5492 5491 5491 5491 5490 5489
5364 5363 5363 5363 5364 5367 5369 5374 5379 5384 5390 5396 5402 5408 5414 5420 5426 5431 5436 5440 5444 5448 5452 5455 5459 5462 5465 5468 5470 5473 5475 5476 5478 5479 5480 5481 5481 5481 5481 5480 5479 5479 5478
5354 5353 5352 5352 5354 5356 5359 5363 5367 5373 5378 5384 5390 5396 5402 5408 5414 5419 5424 5428 5433 5437 5440 5444 5448 5451 5454 5457 5459 5462 5464 5465 5467 5468 5469 5470 5470 5470 5469 5469 5468 5467 5466
5344 5343 5343 5343 5345 5347 5350 5354 5358 5362 5368 5373 5379 5385 5391 5397 5403 5408 5413 5418 5422 5426 5430 5434 5437 5440 5443 5445 5448 5450 5453 5455 5456 5457 5458 5459 5459 5459 5458 5457 5456 5455 5453
5336 5335 5335 5335 5337 5339 5342 5345 5349 5353 5358 5364 5370 5375 5381 5387 5392 5398 5403 5408 5412 5416 5420 5424 5427 5429 5432 5435 5437 5440 5442 5444 5445 5446 5447 5448 5447 5447 5446 5445 5444 5442 5441
Wind_Speed
34 34 34 36 36 36 36 36 37 37 37 38 38 38 38 39 40 40 41 40 40 41 41 41 42 43 44 44 45 45 45 46 45 45 44 45 45 45 45 44 44 43 42
36 36 36 37 38 38 37 37 38 38 38 38 39 40 39 40 41 42 42 42 42 42 42 42 43 44 44 44 44 44 45 45 44 44 44 44 44 44 43 43 42 41 40
37 38 39 39 41 41 41 41 41 41 41 41 42 42 42 42 43 43 43 44 44 44 43 43 44 44 43 43 44 44 44 44 44 43 43 43 43 42 42 41 40 38 37
40 41 41 43 44 44 44 44 44 44 44 44 44 44 45 45 45 45 45 45 44 44 44 43 43 43 43 43 43 43 43 43 42 42 42 42 41 41 40 39 38 36 35
42 43 44 45 46 46 46 46 46 46 46 46 46 45 45 45 45 45 44 44 44 44 43 43 43 42 42 42 42 42 42 41 41 41 41 40 40 39 38 37 36 35 34
44 45 46 47 48 48 48 48 48 48 48 47 47 46 46 45 45 45 45 45 44 44 44 43 43 42 42 42 42 41 41 40 40 40 40 39 38 37 36 35 33 33 31
47 48 49 49 49 49 49 49 49 49 49 49 49 48 47 47 47 46 46 46 45 44 44 43 43 42 42 41 40 40 40 39 39 39 38 37 36 34 33 32 31 30 29
49 50 51 52 51 51 51 52 51 51 51 51 50 50 49 49 48 48 47 46 45 45 44 43 42 42 41 40 40 39 39 38 38 37 36 35 33 32 30 30 29 28 28
51 52 52 52 52 52 52 52 52 52 51 51 51 50 50 49 49 48 47 46 46 45 43 43 42 40 40 39 39 38 38 37 36 35 33 32 31 30 29 28 28 27 27
51 52 52 52 52 52 52 52 51 51 50 50 49 49 49 49 48 48 47 46 45 44 42 42 41 40 39 39 38 37 37 36 35 33 32 31 30 30 29 28 28 27 26
52 52 52 52 51 51 51 51 50 50 50 49 49 48 48 47 47 47 46 45 44 43 42 41 40 39 39 38 37 36 35 34 33 32 32 31 31 30 29 29 28 27 26
54 53 53 52 51 51 50 50 50 49 49 48 48 48 47 46 46 46 45 45 43 43 42 41 40 39 38 37 36 35 34 34 33 32 31 30 30 29 28 28 27 26 25
55 55 54 53 53 52 51 50 49 49 48 47 47 47 47 46 46 46 45 44 43 42 41 40 39 38 37 36 35 35 34 33 32 30 30 29 28 28 27 27 26 25 25
57 56 55 55 54 53 52 51 49 48 48 47 47 46 46 45 45 46 45 44 43 42 41 40 39 38 37 36 35 34 33 32 31 31 30 29 28 28 27 26 26 26 26
55 54 54 54 53 52 51 50 49 48 48 47 47 46 46 46 45 45 45 44 43 42 41 40 39 38 37 36 35 34 33 32 31 31 30 29 28 28 27 27 27 27 27
52 52 51 51 51 51 51 50 49 48 48 47 47 47 46 45 45 45 45 44 43 42 41 40 39 38 37 36 35 34 33 32 31 31 30 29 28 28 28 28 28 28 28
51 50 50 50 49 49 49 49 48 48 48 47 47 46 46 45 44 44 44 44 43 42 41 39 38 37 37 35 34 34 33 32 31 30 29 29 28 28 29 29 29 30 30
48 48 48 48 48 48 48 48 48 48 47 46 46 46 45 45 44 44 44 44 43 41 40 39 38 37 36 35 34 33 33 32 31 31 30 29 29 30 30 30 31 31 31
43 43 44 45 46 46 46 47 48 47 47 46 46 46 45 44 44 44 43 42 41 41 40 39 38 37 36 35 34 34 33 32 32 31 31 31 31 31 31 31 31 31 31
40 40 41 42 43 44 45 45 46 47 47 46 46 45 45 44 43 43 42 41 41 40 39 39 38 37 36 35 35 34 33 32 32 32 32 32 32 32 32 32 32 33 33
37 38 39 39 40 41 42 43 44 44 45 45 45 44 44 44 43 42 41 40 40 40 39 38 38 37 36 35 35 34 34 33 33 32 32 32 32 33 33 33 34 34 34
35 35 36 35 35 36 38 39 41 42 42 43 44 43 43 42 42 41 41 40 39 39 38 38 37 37 37 36 35 34 34 33 33 32 32 32 33 33 33 34 34 35 35
31 30 31 31 31 32 34 36 38 39 40 41 41 41 41 41 41 40 40 39 38 37 37 37 37 37 37 36 36 35 34 34 33 33 33 33 34 34 34 34 35 35 36
28 27 27 27 28 30 31 32 34 36 37 38 39 39 39 39 39 39 38 37 36 36 35 36 36 36 36 36 35 35 34 34 34 33 33 34 34 34 34 35 36 36 37
25 25 24 24 25 27 28 30 32 33 35 36 37 37 37 37 38 37 37 36 35 35 34 33 34 34 35 35 34 34 34 34 34 34 34 34 34 35 35 36 37 37 38
22 22 22 22 22 24 25 27 29 31 32 33 34 34 35 35 35 35 35 34 34 34 33 32 32 32 32 32 32 33 33 33 33 33 34 34 35 35 36 36 37 37 38
Wind_Direction
250 252 253 252 254 255 255 255 255 255 255 256 257 258 259 261 263 265 267 269 272 274 276 278 280 282 283 284 285 286 287 288 289 289 289 289 289 290 290 290 290 288 287
253 254 254 254 254 254 255 255 255 256 256 258 258 259 261 263 264 266 267 269 272 274 276 278 280 281 283 284 284 286 287 287 287 287 288 288 288 289 290 290 289 287 286
255 255 255 255 256 256 256 257 257 257 258 258 260 261 262 263 264 265 266 269 271 274 276 277 278 280 282 283 284 285 286 286 286 286 287 288 289 289 289 288 287 286 284
255 255 256 258 258 259 259 260 260 260 260 261 262 262 263 263 265 266 267 269 271 273 274 276 277 278 280 282 283 284 285 285 285 286 287 288 289 289 288 287 286 284 282
255 256 257 258 259 259 259 260 261 261 261 261 262 263 264 265 265 266 267 269 270 271 272 274 275 277 279 281 282 283 284 284 285 286 288 289 289 288 287 286 285 283 281
257 257 258 258 259 259 260 260 260 261 261 261 261 262 263 264 264 265 266 267 269 270 271 273 274 276 278 280 281 282 283 284 285 287 288 288 288 287 286 284 283 282 280
260 260 259 259 260 260 260 260 260 260 260 260 261 262 262 263 263 264 265 266 267 268 270 272 274 275 277 279 280 281 283 284 286 287 287 287 287 286 284 283 282 281 278
262 262 261 261 262 261 261 261 261 260 260 261 261 261 261 262 262 262 263 265 266 267 268 270 272 274 276 277 278 280 282 284 285 285 285 284 284 283 283 283 281 280 278
264 264 264 263 263 263 263 262 262 262 262 261 261 261 261 261 261 261 262 263 264 265 267 268 270 271 273 275 277 279 281 282 283 283 283 282 281 281 281 280 279 278 277
266 266 265 264 264 264 263 263 263 262 262 262 261 260 260 259 259 259 260 261 262 263 265 267 268 270 272 274 276 278 279 280 281 280 280 279 279 279 279 278 278 277 275
267 266 265 264 264 264 263 262 262 261 261 260 259 259 258 258 258 258 259 259 261 262 263 265 266 269 271 273 274 276 277 277 278 277 277 277 278 277 277 276 275 274 273
268 268 267 265 264 263 262 261 260 259 259 258 258 257 257 257 256 257 257 258 259 260 262 263 265 267 269 270 272 273 274 275 275 274 275 276 276 275 275 274 272 271 271
269 268 267 266 264 263 262 261 260 259 258 256 256 256 256 256 256 256 256 256 257 259 260 261 263 265 266 268 269 271 272 272 272 272 273 274 273 273 273 271 270 269 270
269 268 267 265 264 262 261 259 258 257 256 255 254 253 253 254 254 254 255 255 256 257 258 259 260 262 264 265 267 268 269 269 269 270 271 271 270 270 269 269 269 269 270
270 268 267 265 263 261 259 258 256 255 254 253 252 252 252 252 252 253 253 253 254 254 256 257 258 260 262 264 265 265 266 266 267 268 268 268 268 267 268 268 268 270 271
270 268 266 265 262 260 257 255 253 252 251 250 250 250 250 250 250 251 251 251 252 253 254 255 257 259 261 262 263 263 263 264 265 265 266 266 266 266 267 268 269 270 272
271 268 266 264 262 258 255 252 250 249 249 248 247 247 248 248 248 249 249 249 250 251 252 253 255 257 259 260 260 260 261 261 262 263 264 264 264 265 267 268 270 271 273
271 268 265 263 261 258 254 250 248 246 246 246 246 246 246 245 245 246 247 248 248 249 250 252 253 255 257 258 258 258 258 259 259 260 262 263 264 266 267 269 270 272 274
272 269 266 263 260 257 254 250 247 245 243 243 243 243 243 242 242 243 245 247 247 248 248 251 252 253 255 255 256 256 257 257 258 259 261 262 264 266 267 268 270 272 274
273 270 268 264 261 256 252 249 246 244 242 240 240 240 240 240 241 242 243 244 245 246 247 248 250 251 252 253 253 255 256 257 258 259 260 262 264 265 267 269 270 272 274
275 272 269 265 261 255 250 247 244 242 240 238 237 238 239 239 240 241 242 243 244 245 246 247 248 248 250 251 252 254 255 257 258 258 260 261 263 265 268 270 272 273 275
278 273 269 265 260 253 248 245 242 240 238 236 235 235 236 237 238 240 241 242 243 244 245 245 247 247 249 250 252 253 254 256 257 258 259 261 264 267 269 271 273 274 275
280 274 268 263 257 251 247 243 240 238 236 234 234 234 235 235 237 239 241 242 242 242 243 245 246 248 249 250 250 251 253 254 256 258 259 263 266 268 270 271 273 274 275
280 275 268 261 254 249 245 241 238 235 234 232 232 233 234 235 235 237 238 239 240 241 242 244 245 247 248 248 249 250 252 254 256 258 261 264 267 269 270 272 274 275 276
278 274 269 262 254 247 242 240 237 234 233 232 231 232 233 233 233 234 235 237 238 239 241 243 246 247 248 248 248 250 252 254 256 259 262 265 267 269 272 274 275 276 277
278 272 267 259 251 246 242 239 236 233 230 229 229 229 229 229 230 231 232 234 236 237 240 242 245 246 246 246 247 250 253 255 258 261 263 266 268 271 273 275 276 278 279